Theta_e
300 300 300 300 300 301 296 284 276 291 290 276 268 269 278 285 282 286 284 285 285 280 283 281 282 282 286 290 293 290 291 288 283 287 289 291 291 290 287 284 280 279 278 281
300 300 300 300 300 300 291 278 280 288 287 270 273 279 280 281 281 281 281 280 283 284 280 279 283 283 288 290 288 291 293 287 281 282 286 288 290 289 291 290 285 282 280 281
300 300 299 299 299 300 287 276 271 279 279 277 275 276 277 277 282 281 282 281 283 281 279 281 278 280 287 286 288 294 295 288 284 281 285 287 283 289 287 290 285 282 284 284
300 300 299 299 299 299 286 278 279 282 273 273 276 277 277 271 273 280 281 279 280 279 275 276 278 281 281 285 291 292 291 285 286 284 286 287 286 289 289 287 289 285 287 285
300 299 299 299 298 297 284 276 278 281 279 274 272 270 268 269 273 277 274 275 279 279 276 276 275 278 279 280 286 286 288 285 286 283 287 285 284 288 290 291 291 290 287 287
300 299 299 298 298 293 282 283 283 280 274 264 266 265 273 275 279 278 281 281 279 277 279 283 285 285 284 283 281 281 284 285 284 279 283 282 278 284 288 289 288 290 285 289
300 299 299 298 297 294 285 284 284 277 271 268 269 270 277 276 278 277 280 281 279 282 287 285 284 283 282 283 283 284 281 282 284 281 282 276 284 286 289 289 289 290 287 290
299 299 299 298 297 297 286 285 282 283 275 277 274 278 272 277 277 276 279 281 284 286 284 278 277 279 281 281 282 282 284 283 282 280 279 281 282 286 286 285 287 289 289 288
299 299 299 299 298 297 286 285 289 287 279 270 276 275 270 275 273 272 276 282 284 287 281 273 268 269 278 279 284 285 285 285 281 280 279 276 284 290 288 289 281 289 291 291
299 298 299 299 298 297 287 285 290 287 280 278 276 273 277 280 278 272 270 277 277 283 276 271 274 273 284 279 280 281 281 282 279 280 277 277 281 283 288 281 282 286 288 290
299 298 298 298 298 297 288 285 289 289 284 282 281 283 281 282 276 268 274 274 275 273 273 273 275 275 279 281 282 283 282 281 281 282 281 278 280 282 281 279 282 284 286 287
299 297 297 298 298 297 291 283 289 288 286 278 284 286 289 287 282 279 273 272 276 280 273 271 270 274 278 277 277 278 274 267 270 274 275 275 278 278 278 279 280 283 283 285
299 297 297 298 298 297 293 284 283 281 275 275 277 280 290 293 289 289 269 272 279 278 284 278 273 270 277 273 270 271 268 268 267 268 272 269 274 275 276 277 278 282 282 283
299 297 296 297 297 296 292 283 284 281 278 270 272 283 283 284 280 281 281 280 281 283 284 279 273 272 277 271 267 264 264 266 263 266 268 268 277 273 274 275 279 281 281 280
299 296 296 296 296 294 288 285 284 284 277 267 271 278 283 278 276 275 278 279 281 282 277 278 274 274 272 269 266 261 264 262 261 261 266 266 268 272 273 273 279 279 278 278
298 294 296 295 295 294 289 277 288 285 286 276 267 274 270 273 274 274 276 280 278 282 277 276 274 274 272 265 262 264 266 267 267 264 268 268 270 272 276 277 280 279 279 279
297 294 294 294 295 283 279 277 282 288 287 269 262 264 270 272 273 272 273 275 277 277 275 272 267 265 266 259 256 263 265 266 266 268 267 266 270 270 276 277 278 279 278 278
295 293 294 294 292 288 279 282 286 282 273 267 257 262 266 271 266 266 271 271 274 275 273 271 268 266 262 257 262 264 264 265 265 266 267 268 271 272 273 275 276 274 273 275
292 292 292 283 279 274 276 289 283 278 273 260 260 259 259 270 266 268 268 269 266 277 269 268 268 263 259 263 263 263 264 263 263 265 267 267 269 269 271 272 273 273 272 274
288 282 276 269 274 286 282 274 268 267 264 264 263 265 260 266 264 263 266 266 266 266 271 270 261 262 264 263 264 264 264 264 265 262 262 264 265 267 269 270 271 271 272 272
279 271 269 276 282 275 266 261 263 260 260 267 264 262 261 267 260 262 268 262 266 261 267 263 260 260 258 259 261 264 264 264 265 266 266 266 266 266 267 268 270 271 271 271
281 280 278 276 269 263 263 255 261 263 263 265 261 260 263 263 266 265 265 263 264 259 263 256 257 256 258 258 261 263 264 263 264 266 265 266 266 267 267 268 268 269 270 271
278 271 267 266 263 264 264 260 260 260 262 260 259 259 259 262 262 257 262 257 259 267 255 255 255 258 258 256 259 261 264 264 264 265 266 266 266 267 267 267 268 269 269 270
271 267 265 266 264 264 265 266 265 265 265 262 259 257 258 258 257 258 256 260 259 251 249 253 253 256 255 256 258 258 261 264 264 265 266 266 266 266 267 267 268 269 268 269
272 269 267 262 269 264 265 263 266 264 263 260 256 256 257 256 254 255 256 254 250 252 255 256 257 256 254 255 258 259 262 263 264 265 265 265 266 266 266 267 268 268 268 269
271 268 265 268 268 267 266 265 263 263 260 260 258 251 252 253 253 254 253 250 252 256 257 258 256 257 255 256 258 260 261 263 265 265 266 266 266 266 266 267 267 267 268 267
265 266 270 271 269 271 269 267 266 263 262 258 254 253 256 252 250 251 255 254 257 257 256 259 259 257 256 257 261 262 263 263 265 265 266 266 267 267 266 265 266 267 267 267
Wind_Speed
29 30 30 30 30 30 7 3 4 6 7 7 2 3 8 8 9 5 4 4 4 4 7 4 4 3 4 15 11 3 2 2 8 18 1 1 7 14 6 7 11 2 4 7
29 29 29 29 29 28 3 3 2 5 6 5 5 6 5 3 7 7 6 5 8 7 5 5 4 9 10 9 8 4 4 4 6 4 2 2 10 7 18 12 4 11 9 6
29 28 28 28 28 28 5 4 5 6 6 3 4 8 6 13 7 5 8 5 7 7 4 6 8 7 5 14 7 11 4 2 1 12 20 10 6 18 8 21 12 5 12 5
29 29 27 26 25 26 5 5 3 1 5 6 7 5 5 6 9 4 6 6 6 7 6 9 2 10 11 10 15 2 7 3 1 3 4 6 6 18 15 12 20 15 13 10
29 28 26 24 23 17 6 4 3 3 3 3 6 6 4 2 6 3 6 2 7 10 7 7 14 7 4 5 9 10 7 1 2 4 3 6 6 10 16 21 19 16 8 13
29 27 24 22 19 10 4 2 3 1 4 4 4 4 5 6 12 6 10 12 11 10 10 5 7 7 9 12 8 6 5 1 4 4 5 6 4 12 16 17 8 15 15 11
28 26 23 20 17 7 3 1 0 3 4 3 2 4 10 9 10 8 10 10 5 4 13 14 12 13 13 13 13 11 4 6 1 2 4 5 6 3 10 12 7 14 2 9
27 25 22 18 15 11 3 1 3 2 4 4 4 13 5 11 7 5 4 6 11 12 4 4 6 1 3 7 13 16 13 2 4 5 8 5 2 6 7 9 17 7 8 7
27 24 21 17 14 11 3 1 1 1 2 5 3 5 2 7 10 8 5 9 8 7 3 3 1 4 4 4 2 12 13 10 4 1 5 9 9 14 6 8 9 9 13 15
26 24 19 17 14 11 3 1 2 1 2 3 3 1 3 3 5 4 5 15 9 5 5 3 2 4 4 1 3 4 5 5 11 9 3 8 8 11 5 8 6 8 7 8
26 24 18 15 15 10 3 2 1 2 2 4 3 2 2 2 2 3 8 9 5 5 7 4 5 4 6 6 4 4 4 4 6 6 4 7 18 5 2 9 9 10 6 7
26 23 18 14 14 9 4 2 3 1 3 5 2 4 5 4 2 4 3 5 5 3 3 4 3 3 4 5 4 9 3 6 6 8 4 11 10 11 10 13 13 12 15 12
26 23 17 13 13 10 6 2 4 3 3 5 4 1 4 3 2 2 2 3 4 4 2 2 3 4 3 5 4 6 14 15 4 9 9 23 10 17 19 18 16 17 13 12
27 23 16 11 10 7 5 3 3 3 1 2 6 3 3 5 5 6 8 10 5 5 3 3 2 2 4 3 4 6 5 13 14 7 12 23 6 25 25 25 20 15 10 8
26 22 15 8 6 7 5 2 1 1 4 3 5 5 2 6 11 13 8 5 5 3 2 2 2 3 5 4 4 4 6 5 6 7 18 12 20 25 31 23 17 12 9 7
25 19 12 8 2 6 2 3 1 2 2 1 3 3 6 8 13 11 8 4 2 1 1 2 3 3 4 3 3 3 10 9 10 9 16 19 24 25 19 16 11 7 7 7
26 16 5 6 7 4 3 3 5 9 1 4 5 6 5 6 4 5 5 5 2 2 2 3 3 4 4 4 3 12 15 14 18 13 14 9 10 16 18 12 9 6 6 7
23 13 2 5 7 6 3 4 10 4 5 5 4 6 6 7 5 5 4 4 4 4 2 3 3 3 3 2 8 12 12 16 11 15 15 16 16 13 11 7 6 5 5 5
16 8 5 4 4 3 3 11 6 4 5 5 4 2 6 6 3 3 5 2 4 2 3 2 3 3 5 8 15 15 15 11 15 18 14 13 12 13 12 9 7 4 4 5
8 4 5 4 3 10 6 8 6 7 6 5 3 1 3 3 3 4 4 2 2 3 3 3 4 2 3 5 9 11 13 13 14 14 16 16 13 12 12 9 6 5 4 4
5 4 1 3 8 4 5 4 5 3 5 1 1 2 2 2 1 3 1 3 3 3 3 3 1 1 4 6 8 9 10 10 10 9 9 9 8 8 8 9 8 6 6 6
3 2 2 3 5 4 7 1 4 2 3 1 2 2 2 3 2 2 4 2 4 2 2 5 2 5 5 6 9 11 10 10 10 10 10 10 10 10 8 8 9 8 8 7
3 4 4 4 3 3 4 3 4 2 3 2 2 3 0 4 4 2 2 4 2 2 4 3 5 3 5 6 6 8 8 9 10 11 11 10 9 11 11 10 9 8 10 9
2 3 6 4 4 5 5 4 5 3 4 4 3 1 1 1 4 1 2 3 3 4 3 6 4 4 5 5 5 4 8 8 9 9 10 10 9 9 10 11 10 9 11 11
2 3 7 7 3 1 1 2 2 2 3 4 3 3 2 2 3 2 3 6 4 6 6 4 3 4 3 4 3 5 6 6 6 6 7 8 8 8 9 9 9 10 10 10
3 4 2 1 1 2 3 3 2 3 4 3 3 3 4 2 3 3 6 6 8 5 4 3 2 2 3 3 3 4 3 4 4 5 5 5 7 7 6 8 9 9 9 10
4 5 2 4 1 3 4 4 4 5 4 3 4 3 9 2 2 3 6 8 5 4 3 2 3 3 4 4 4 3 2 3 4 4 4 4 4 4 6 8 7 7 8 8
Wind_Direction
360 0 2 360 358 356 18 33 36 312 357 50 32 16 321 303 324 360 311 291 322 346 315 337 314 327 2 339 315 255 251 192 163 194 156 200 185 201 157 186 214 160 149 252
359 0 360 0 360 1 331 63 302 329 47 58 10 326 309 291 342 311 350 315 360 353 303 313 357 5 327 4 335 191 9 245 134 123 247 42 199 197 206 223 77 199 192 244
359 360 358 0 2 359 66 67 24 337 33 32 17 2 341 344 330 312 340 307 334 350 338 4 320 317 330 318 332 271 332 263 197 197 196 165 178 209 203 209 223 198 224 185
360 358 360 0 4 359 73 28 48 94 334 350 349 348 331 344 347 359 310 342 18 357 313 325 319 21 336 326 2 16 169 217 180 337 324 161 177 195 192 195 220 210 226 207
2 0 359 2 6 12 65 87 24 334 327 321 345 343 309 306 305 254 311 205 303 297 279 260 292 323 333 296 348 353 355 204 124 311 348 25 217 214 203 217 218 226 191 226
3 2 360 3 10 46 71 344 332 67 340 360 39 268 312 309 321 272 247 284 301 273 269 272 269 264 257 260 300 327 323 265 128 240 64 14 342 211 207 217 209 210 215 214
3 2 3 4 9 65 117 209 47 31 303 59 255 322 317 290 314 275 280 297 273 259 323 293 252 243 241 236 241 217 289 335 242 167 81 207 248 314 214 216 216 222 215 183
4 2 5 8 9 27 76 50 84 353 327 302 325 337 298 301 277 265 269 307 330 308 330 314 328 333 274 243 223 202 206 238 266 181 185 288 319 248 166 178 246 220 223 228
2 2 4 6 10 10 75 54 256 8 331 282 242 309 314 344 337 332 292 319 328 325 287 54 298 226 233 238 166 191 189 216 272 257 196 228 256 232 149 106 266 213 201 220
359 359 1 3 13 14 81 330 297 14 288 273 109 303 320 355 327 271 316 336 329 351 347 339 297 284 214 175 161 160 167 204 224 240 247 290 351 316 311 158 263 338 337 265
357 354 354 357 357 16 76 275 349 5 273 285 171 254 284 279 23 356 306 343 353 341 10 3 339 310 331 335 303 322 177 239 180 203 233 244 355 350 117 333 314 320 313 325
355 352 349 348 347 352 122 20 329 282 223 239 260 251 236 187 174 328 312 219 299 303 3 6 331 315 320 319 308 350 74 16 300 1 43 342 332 49 7 353 329 324 317 308
352 350 346 344 341 6 94 113 304 44 44 317 23 36 20 115 43 204 131 284 257 326 341 271 249 283 337 358 31 316 355 22 13 325 18 339 288 4 354 351 332 317 321 306
348 348 344 345 349 30 100 81 307 74 106 87 280 343 349 66 353 270 230 251 302 273 257 247 250 294 20 49 77 62 346 325 326 282 7 336 270 342 326 327 326 330 339 337
348 347 341 347 8 108 94 121 311 148 107 221 279 296 346 13 339 336 320 206 232 252 310 260 19 29 6 76 80 55 349 339 338 290 324 280 291 300 306 310 317 332 346 350
346 345 340 351 55 134 323 351 300 342 150 111 343 275 344 327 350 338 349 332 263 275 336 23 55 42 344 63 72 169 348 312 286 282 294 286 281 283 283 311 328 342 12 28
345 343 348 39 93 87 105 167 275 339 83 79 340 335 336 312 345 342 339 331 344 68 65 48 76 20 45 71 24 322 323 311 305 300 321 310 312 309 313 328 329 354 29 35
345 342 84 102 88 77 29 339 3 50 87 65 66 298 352 9 338 328 352 334 324 17 104 45 58 17 53 91 322 317 316 315 299 328 317 292 290 310 320 328 342 10 25 59
343 336 108 42 34 36 245 326 56 31 93 106 72 79 293 1 331 309 322 19 347 352 63 50 72 355 45 315 322 324 328 326 308 316 314 327 328 331 336 347 360 9 30 61
348 40 51 349 282 306 346 10 22 16 343 29 92 135 290 29 338 306 329 345 307 360 61 76 66 111 233 275 311 309 319 323 324 333 337 342 339 334 346 347 357 19 28 61
26 22 253 247 326 53 32 33 67 323 18 11 218 153 253 359 35 296 301 297 296 27 349 90 14 259 277 301 313 318 316 321 324 321 318 326 329 342 350 356 5 26 43 60
232 270 1 353 32 34 77 305 323 81 220 198 132 246 213 299 344 300 316 297 7 336 11 68 283 254 277 316 317 325 325 328 331 340 338 342 2 3 10 18 16 26 41 57
61 42 34 43 308 33 141 230 292 284 200 217 40 335 329 341 44 329 357 21 248 335 34 239 224 249 297 305 302 320 327 336 342 351 353 356 10 24 26 28 26 35 51 48
79 86 288 162 265 242 185 186 177 204 118 137 115 56 66 285 28 268 59 256 51 21 354 243 241 246 266 295 299 326 327 339 341 348 352 355 5 25 32 30 30 36 48 50
224 111 242 215 204 134 140 116 127 113 111 106 77 43 85 335 47 51 11 3 285 203 229 232 223 245 265 298 311 314 325 332 336 337 354 359 358 20 41 32 36 40 45 50
164 223 260 161 55 177 188 179 162 156 119 93 52 109 51 296 141 62 215 125 229 237 209 206 194 253 271 279 291 284 300 321 329 341 347 1 10 12 31 46 44 45 47 53
211 249 232 186 296 208 158 148 155 142 121 157 119 118 217 96 39 261 196 210 215 196 218 193 190 218 256 273 296 303 329 325 330 337 360 1 359 22 43 49 40 51 49 52